Regional Weather Roundup
Issued by NWS

Home | Current Version | Previous Version | Text Only | Print | Product List | Glossary Off
Versions: 1 2 3 4 5 6 7 8 9 10 11 12 13 14 15 16 17 18 19 20 21 22 23 24 25 26 27 28 29 30 31 32 33 34 35 36 37 38 39 40 41 42 43 44 45 46 47 48 49 50

000
ASUS43 KIND 030959
RWRIN

WEATHER ROUNDUP FOR INDIANA
NATIONAL WEATHER SERVICE INDIANAPOLIS IN
500 AM EST TUE MAR 03 2015

NOTE: "FAIR" INDICATES FEW OR NO CLOUDS BELOW 12,000 FEET WITH NO
SIGNIFICANT WEATHER AND/OR OBSTRUCTIONS TO VISIBILITY.

* - STATION DOES NOT REPORT WEATHER SUCH AS PRECIPITATION OR FOG.

+ - STATION NOT QUALITY CONTROLLED BY THE NATIONAL WEATHER SERVICE.
    USE DATA WITH CAUTION...ESPECIALLY DEWPOINT AND RELATIVE
    HUMIDITY OBSERVATIONS.

INZ001>003-010>013-019-020-031100-
NORTHWEST INDIANA

CITY           SKY/WX    TMP DP  RH WIND       PRES   REMARKS
MONTICELLO +   MIX PCPN  26  19  75 SE5       30.12F WCI  20
VALPARAISO     NOT AVBL

$$

LMZ046-743>745-031100-
SOUTHERN LAKE MICHIGAN

STATION/POSITION TIME  TEMP WIND        PRES
                       AIR  DIR/SP/G
                 (UTC) (F)  (DEG/KT/KT) (MB)
MICHIGAN CITY    0900   26  120/  9/ 12   N/A

$$

INZ004-005-014>016-021>024-031100-
NORTH CENTRAL INDIANA

CITY           SKY/WX    TMP DP  RH WIND       PRES   REMARKS
GOSHEN         CLOUDY    24  16  71 SE9       30.11F WCI  14
SOUTH BEND     FLURRIES  26  15  63 SE14      30.09F WCI  14

$$

INZ006>009-017-018-025>027-031100-
NORTHEAST INDIANA

CITY           SKY/WX    TMP DP  RH WIND       PRES   REMARKS
ANGOLA *+      MOCLDY    21  16  79 SE6       30.16S WCI  14
FORT WAYNE     CLOUDY    23  15  71 SE7       30.17F WCI  15

$$

INZ028-029-035-036-043>045-051>053-031100-
WEST CENTRAL INDIANA

CITY           SKY/WX    TMP DP  RH WIND       PRES   REMARKS
CRAWFORDSVL +  CLOUDY    26  15  63 SE9       30.09F WCI  17
GREENCASTLE +  CLOUDY    28  18  64 E7        30.09F WCI  21
LAFAYETTE      MIX PCPN  26  20  77 E5        30.13F WCI  20
TERRE HAUTE    CLOUDY    30  19  63 SE7       30.08F WCI  23

$$

INZ030>032-037>040-046>048-054>057-064-065-031100-
CENTRAL INDIANA

CITY           SKY/WX    TMP DP  RH WIND       PRES   REMARKS
GREENWOOD *+   CLOUDY    27  16  63 SE9       30.10F WCI  17
INDIANAPOLIS   FRZ RAIN  27  18  69 E10       30.07F WCI  17
-EAGLE CREEK   MIX PCPN  27  19  72 E7        30.09F WCI  19
KOKOMO *+      CLOUDY    25  18  74 SE10      30.13F WCI  15
MT COMFORT *+  CLOUDY    27  12  54 SE9       30.10F WCI  17
SHELBYVILLE    MOCLDY    29  17  61 SE13      30.08F WCI  19

$$

INZ033-034-041-042-049-050-058-059-031100-
EAST CENTRAL INDIANA

CITY           SKY/WX    TMP DP  RH WIND       PRES   REMARKS
MUNCIE         MIX PCPN  26  16  65 SE13      30.10F WCI  15

$$

INZ060-061-067>069-081>083-085>088-031100-
SOUTHWEST INDIANA

CITY           SKY/WX    TMP DP  RH WIND       PRES   REMARKS
EVANSVILLE     CLOUDY    35  24  64 S6        30.10F WCI  30
HUNTINGBURG *+ MOCLDY    34  21  60 SE9       30.10F WCI  26

$$

INZ062-063-066-070>080-084-089>092-031100-
SOUTH CENTRAL AND SOUTHEAST INDIANA

CITY           SKY/WX    TMP DP  RH WIND       PRES   REMARKS
BLOOMINGTON    CLOUDY    30  18  60 SE10      30.07F WCI  21
SEYMOUR +      CLOUDY    30  18  59 SE7       30.11F WCI  23

$$




USA.gov is the U.S. government's official web portal to all federal, state and local government web resources and services.